Wind_Speed
32 32 32 30 29 29 29 29 29 30 29 27 26 25 24 23 22 23 23 23 23 22 20 20 18 16 15 15 14 14 13 10 10 11 12 12 13 13 15 16 16 16 17 18 19 20 21 22 23 22 22 22 21 20 21 21 21 20 20 20 21 22 23 23 23 24 25 27 28 28 28 28 28 29 31 33 35 36 36 36 37 37 37 37 36 35
33 34 32 31 31 31 31 31 31 30 29 27 27 26 25 25 25 25 25 24 24 23 21 21 21 17 16 17 15 15 14 12 12 13 13 14 14 15 16 17 17 19 20 20 20 21 22 23 23 24 24 23 22 21 21 21 21 21 21 21 21 22 23 23 24 24 26 27 28 29 29 30 30 31 33 35 37 39 39 37 37 38 37 36 36 35
34 34 33 33 33 32 32 31 31 30 29 29 29 27 27 27 27 27 27 26 25 25 22 24 24 18 17 19 17 17 16 14 14 15 16 15 15 17 18 18 18 20 21 22 22 22 23 24 25 24 25 25 24 22 22 22 22 22 22 22 22 22 23 24 24 25 26 28 29 30 31 31 32 32 34 36 37 38 39 38 37 37 37 36 35 34
33 34 34 35 34 34 33 33 32 32 31 31 30 29 29 29 29 29 29 27 26 26 25 26 26 21 19 21 19 18 17 16 16 18 18 17 17 18 19 19 20 21 22 22 22 23 24 26 26 26 26 26 25 24 23 22 23 23 23 23 23 23 23 24 25 26 27 29 30 31 31 31 30 31 33 34 35 36 37 37 37 36 36 35 34 33
34 35 35 36 36 35 35 34 34 33 33 32 31 31 31 31 31 31 30 30 28 28 27 27 28 24 22 22 21 19 19 18 19 20 20 19 19 20 21 21 22 23 23 23 23 24 25 27 28 27 27 28 28 26 25 24 24 25 25 24 24 24 24 25 26 27 28 29 30 29 30 29 29 30 31 33 34 35 36 36 36 36 35 34 33 33
35 35 36 36 37 36 36 36 35 35 34 33 33 33 33 33 33 32 32 32 30 29 28 28 30 28 24 24 22 20 20 22 22 22 20 20 21 22 24 23 24 25 26 25 24 25 27 28 29 29 29 29 29 29 27 26 25 26 26 25 25 25 26 26 27 28 28 28 28 28 29 30 30 31 32 33 34 35 35 34 35 35 33 33 32 32
36 36 36 36 37 36 37 37 37 37 36 36 35 34 35 35 35 34 34 34 33 31 29 30 32 31 26 24 22 21 22 24 25 23 22 22 23 25 26 26 26 27 28 27 26 28 30 31 31 30 30 31 31 30 30 29 28 27 27 26 26 26 27 28 28 28 28 28 28 28 30 31 32 33 34 34 35 35 34 33 33 33 33 33 33 32
36 36 36 35 36 36 37 38 38 39 39 38 37 36 37 37 37 37 36 36 35 33 31 31 32 34 30 24 22 23 25 26 26 24 24 24 24 27 29 28 28 29 29 28 29 30 32 33 33 32 32 32 31 31 31 31 31 29 28 27 27 27 28 29 29 28 28 28 28 29 31 32 33 34 35 35 36 35 34 32 32 32 33 33 33 32
36 36 37 36 36 37 37 38 39 40 41 40 39 39 39 38 39 38 38 37 37 36 34 32 33 36 34 27 25 26 26 26 26 25 26 26 25 28 30 30 29 30 30 31 31 32 34 35 34 34 34 34 32 31 32 32 32 31 30 29 28 29 30 30 29 28 29 29 30 31 32 33 33 34 34 35 35 36 35 33 32 32 33 33 33 33
37 37 38 38 37 37 38 39 40 41 42 42 42 41 41 41 41 41 41 39 39 38 35 34 35 36 36 32 29 30 29 27 26 27 28 28 27 29 31 30 31 32 32 33 33 34 35 36 36 36 36 35 34 33 32 32 33 32 31 31 30 31 32 32 31 30 30 31 31 32 33 33 34 34 34 34 35 36 35 34 33 33 33 34 34 34
39 38 38 38 37 37 38 39 40 41 42 42 43 43 43 44 43 43 43 41 42 41 37 38 37 36 39 37 32 33 33 30 29 30 30 30 30 31 32 33 34 34 34 35 35 35 36 37 38 39 39 37 35 34 34 33 33 33 33 32 32 33 33 34 33 32 33 34 34 34 33 33 34 35 35 35 35 36 36 35 35 35 35 35 35 36
40 39 38 38 38 37 38 39 41 42 43 43 44 44 44 45 44 44 44 44 45 43 40 42 41 39 40 38 35 37 39 36 34 34 34 34 34 35 35 36 36 36 36 37 37 37 37 38 40 40 40 38 36 36 35 34 34 34 34 34 34 34 35 35 35 34 35 36 35 34 34 34 36 37 36 36 36 37 37 37 37 37 37 36 36 37
41 41 40 40 40 40 40 40 42 43 44 44 44 43 43 43 44 44 44 46 47 45 44 45 45 43 40 37 38 41 42 40 39 39 40 39 38 39 40 39 39 39 38 38 39 39 39 40 40 40 39 38 37 37 37 35 36 36 36 35 35 36 37 37 36 36 37 37 37 36 35 36 38 38 37 36 36 37 37 37 38 38 38 38 38 39
44 44 44 43 43 42 41 41 41 41 42 43 42 41 42 42 43 45 46 47 47 46 47 47 47 45 41 37 39 41 43 45 46 46 45 43 42 43 44 44 42 41 41 40 40 40 40 40 40 39 38 37 38 38 38 37 37 37 36 36 37 37 38 38 37 37 38 39 39 38 37 38 39 39 37 36 36 37 38 38 38 38 39 39 40 40
48 47 46 45 44 42 41 41 40 40 41 42 42 43 44 44 45 46 46 46 46 46 47 48 48 46 41 39 39 40 42 46 50 50 47 45 45 46 47 47 45 42 41 41 40 39 40 40 40 40 39 39 38 37 38 39 39 37 36 36 37 38 38 38 38 39 39 40 41 40 40 40 40 39 37 36 37 38 39 39 39 39 39 40 41 41
50 49 47 46 46 44 43 42 41 42 43 43 44 45 45 44 44 46 46 46 45 46 47 47 47 45 41 41 41 42 42 45 49 50 48 47 47 47 47 47 45 42 39 38 37 38 39 40 40 40 40 39 38 37 38 40 39 37 36 36 37 38 38 38 38 39 39 40 41 42 42 41 40 39 38 37 37 38 39 40 40 40 40 41 42 43
51 51 49 47 47 46 45 44 43 43 43 44 44 43 42 43 43 44 45 45 46 48 48 46 46 43 41 43 43 44 45 46 47 48 48 48 48 46 46 46 45 42 39 37 36 36 38 39 38 38 39 39 39 38 38 39 38 36 35 36 37 38 38 38 38 38 39 40 41 42 42 41 39 38 38 38 38 39 40 41 41 41 42 42 43 44
52 52 51 49 48 48 47 46 46 45 45 46 46 43 42 44 45 45 47 47 48 50 49 47 46 44 43 45 44 45 47 47 47 48 49 49 47 46 46 46 46 43 40 37 36 37 38 37 37 38 40 40 40 40 39 39 38 37 37 37 38 39 39 38 38 38 39 40 41 42 42 41 40 39 39 39 40 41 41 42 42 42 43 44 44 45
52 52 53 52 51 50 49 49 49 49 49 49 48 46 47 48 48 48 49 49 49 51 50 48 48 47 46 46 46 47 48 48 49 50 51 50 48 47 45 44 43 43 41 39 39 41 42 40 39 40 40 41 41 41 41 41 40 39 38 39 39 40 39 39 38 37 38 39 41 42 43 42 42 41 41 42 42 43 43 43 43 43 44 45 46 46
52 52 52 53 52 51 51 51 51 51 51 50 49 49 50 50 51 51 51 51 50 51 52 50 50 51 48 46 48 49 50 50 51 52 51 51 49 47 45 41 41 42 42 41 42 44 45 44 42 42 41 41 42 42 42 42 42 41 40 40 40 39 39 38 37 38 38 39 40 42 43 44 44 45 44 44 44 45 46 46 45 45 45 46 46 47
51 53 54 55 55 55 54 53 52 50 50 50 49 50 50 50 51 52 52 52 51 52 53 54 55 54 50 49 51 52 53 52 53 54 53 52 49 47 47 44 41 41 42 43 44 46 46 45 45 44 42 42 43 45 45 44 44 43 42 41 40 40 39 39 39 40 40 41 41 42 44 45 45 46 46 46 46 46 46 47 46 46 46 47 47 47
52 54 55 56 57 57 55 53 51 50 50 50 50 51 51 51 52 53 54 55 54 54 55 56 58 56 53 53 54 54 56 55 55 55 54 51 49 48 49 46 42 41 43 43 45 48 48 47 47 46 44 43 44 46 47 46 45 45 44 42 41 41 41 41 42 42 43 43 43 43 44 44 45 46 47 47 47 47 46 46 46 46 46 47 48 48
49 50 53 56 58 58 56 55 55 55 54 54 54 54 54 55 56 57 58 58 57 57 56 58 61 59 55 56 57 56 57 57 56 56 54 52 51 50 51 49 46 45 46 45 47 48 48 48 49 49 46 45 46 47 47 46 46 46 46 44 43 43 43 43 43 44 44 45 45 45 44 44 44 45 47 48 48 47 47 46 46 46 46 47 48 49
50 52 56 59 60 60 61 61 60 60 60 60 60 59 59 60 60 59 58 57 58 60 59 62 64 62 58 60 60 59 59 58 56 54 52 52 52 51 51 51 52 50 47 45 47 49 50 50 50 49 48 48 48 49 47 45 45 46 46 46 46 45 45 45 44 45 45 46 47 47 46 45 45 46 47 47 47 47 46 46 46 46 46 46 48 49
51 53 55 58 60 62 64 65 65 65 66 65 63 62 61 61 59 58 58 57 59 61 61 64 66 64 62 62 61 60 59 57 54 52 52 53 53 52 53 55 56 54 49 46 47 50 52 51 50 49 50 51 51 50 46 44 45 45 46 46 46 45 45 45 45 45 45 46 47 48 47 46 47 47 47 46 45 45 46 46 45 45 46 46 47 48
53 54 55 57 60 64 66 67 66 64 62 61 60 59 59 58 57 56 55 56 60 62 62 65 67 65 63 62 61 59 57 56 54 53 53 54 54 54 55 56 55 54 51 48 49 51 52 52 51 51 51 51 51 49 47 46 46 46 45 45 44 44 45 46 46 46 46 47 47 48 47 47 46 47 47 46 45 44 45 45 44 44 45 45 46 47
58 58 59 59 62 65 66 65 62 59 57 57 57 56 55 55 54 54 55 58 62 63 63 65 66 65 64 62 60 58 56 56 56 55 54 54 56 56 56 56 54 54 53 52 52 52 52 53 54 54 53 51 49 48 48 48 47 46 45 44 44 44 46 47 47 47 47 47 48 48 47 47 46 46 46 46 46 45 44 43 43 43 43 44 45 46
60 61 62 62 63 63 63 62 61 61 60 61 60 58 57 56 55 56 59 62 62 63 66 65 63 64 65 61 58 56 55 56 57 57 56 57 58 59 57 56 55 56 56 56 55 55 55 56 56 56 54 52 50 50 50 49 48 47 46 46 46 46 46 47 47 47 47 47 47 47 47 47 46 45 45 46 45 45 44 43 43 43 43 43 44 45
58 60 60 61 62 62 62 63 64 64 64 64 63 62 61 59 59 61 63 63 62 64 66 62 60 63 64 60 57 56 55 56 57 58 59 59 59 59 58 57 57 58 58 58 58 58 58 58 58 57 56 54 53 52 51 50 49 48 49 49 49 48 47 46 46 46 46 45 46 46 46 45 45 44 44 45 45 45 45 45 45 45 45 45 45 45
56 56 56 57 59 60 62 64 65 66 67 67 67 66 64 63 64 64 65 64 63 64 64 61 62 65 63 60 60 58 56 57 57 58 59 59 59 59 59 60 61 61 61 61 61 61 61 59 58 57 57 55 54 51 50 50 51 51 51 51 50 49 47 47 46 45 45 44 44 45 45 44 44 43 43 44 45 45 46 48 49 48 48 48 48 48
56 55 54 54 55 57 58 60 62 65 67 68 68 68 67 67 67 68 68 66 64 64 64 63 66 66 62 60 60 58 58 59 59 59 59 60 60 60 61 63 63 64 63 62 61 62 61 59 58 57 56 54 52 51 51 52 53 52 52 51 50 50 49 49 47 45 45 45 44 44 45 45 45 44 44 45 45 46 47 48 50 51 51 51 51 50
56 55 54 54 55 55 53 55 58 60 62 65 67 69 69 70 70 69 67 65 65 66 65 64 67 67 62 60 59 59 60 62 62 62 62 61 61 62 62 63 63 62 62 61 60 60 60 59 58 57 55 54 53 53 53 53 53 52 51 51 51 51 51 50 49 48 48 48 47 47 47 46 45 45 46 47 47 48 48 49 50 51 52 52 52 52
55 55 54 53 55 53 50 53 56 56 59 62 63 64 65 66 67 66 65 64 64 63 63 64 66 66 63 62 62 62 62 61 61 63 63 63 62 62 62 61 60 60 60 59 59 59 60 59 58 57 56 56 55 54 54 54 53 52 52 51 51 51 51 51 51 51 52 52 52 52 50 48 47 47 48 49 50 51 51 51 51 52 52 52 52 53
54 54 53 53 55 52 49 52 56 58 61 60 55 53 56 58 59 60 62 62 60 59 60 61 62 62 62 63 63 61 60 59 59 60 61 62 62 61 60 58 57 58 59 59 59 60 61 60 59 58 57 55 55 54 54 55 54 54 54 54 54 54 54 54 54 55 55 55 56 56 54 53 52 51 51 52 53 53 53 53 53 53 53 53 53 53
57 56 56 55 56 54 51 53 58 62 61 55 51 51 53 55 56 57 59 60 58 58 58 59 59 58 58 57 56 56 57 58 59 59 57 58 60 60 57 55 56 58 59 60 60 61 61 60 59 58 57 56 56 56 56 57 58 58 58 58 59 59 59 59 59 59 58 58 58 58 58 57 56 56 55 55 56 56 55 55 54 54 55 55 54 54
60 60 60 59 59 59 58 60 63 65 61 56 54 54 54 56 56 58 59 58 56 56 56 56 57 55 54 53 53 53 55 57 59 57 55 57 58 58 56 57 59 61 61 61 61 61 60 60 59 59 59 59 59 59 60 61 62 62 62 62 63 64 64 64 63 62 62 62 62 61 60 60 60 60 60 59 59 58 57 57 56 56 57 57 56 55
60 61 62 63 64 64 64 66 67 68 66 62 56 53 54 57 57 59 61 60 57 56 56 56 55 54 52 52 53 54 56 59 59 55 54 58 60 58 59 60 61 62 62 61 61 62 62 62 62 62 62 62 63 64 65 65 66 66 65 65 65 65 65 64 65 65 65 65 65 64 64 64 65 65 65 64 62 61 60 59 59 58 58 58 58 57
58 59 60 62 64 65 66 68 68 70 71 65 57 55 59 61 61 62 64 64 61 59 58 56 55 55 54 54 55 56 58 60 59 55 55 59 60 59 61 62 63 64 64 63 63 64 64 65 65 65 65 66 67 69 70 69 69 68 67 67 66 66 65 66 67 67 67 67 66 66 67 68 69 68 68 67 65 64 64 63 62 61 61 61 60 60
59 59 59 60 62 62 64 66 68 71 72 67 61 62 65 66 65 65 67 66 63 60 59 59 59 59 58 57 58 59 61 63 61 58 59 63 64 63 65 66 66 67 67 67 66 66 66 67 67 67 68 70 71 72 72 70 69 69 68 68 68 68 68 68 69 69 69 69 69 70 71 71 71 71 70 69 68 67 67 67 66 65 65 64 64 64
62 61 61 62 62 61 62 64 66 68 68 66 64 66 68 68 66 65 67 68 64 60 59 60 61 63 62 62 63 64 65 66 65 63 65 67 68 68 69 68 69 69 69 69 68 67 68 68 68 69 71 72 73 72 71 70 69 69 69 69 70 70 70 71 72 72 72 72 73 73 73 73 72 71 70 69 68 68 69 69 68 68 67 67 67 68
68 67 66 66 64 63 63 64 65 65 64 62 63 66 69 70 69 68 69 70 67 65 63 61 62 63 62 62 63 64 66 67 67 66 67 67 68 70 69 69 69 69 70 69 68 68 68 69 70 71 72 73 73 72 71 71 71 71 72 72 72 73 73 74 75 76 76 75 75 74 73 72 71 70 69 68 68 67 67 67 67 68 68 69 69 70
73 73 73 72 70 68 68 68 67 65 63 60 61 65 68 69 69 69 69 70 69 68 68 67 67 67 67 66 66 65 65 66 65 65 65 65 66 67 67 68 68 69 69 69 69 69 69 70 72 73 74 75 76 76 76 76 76 76 76 76 76 77 77 77 77 77 77 75 74 72 70 69 68 67 66 66 65 65 65 66 67 68 69 69 70 70
68 69 71 73 72 70 69 69 69 68 64 61 62 64 66 67 68 68 69 70 72 73 73 74 74 75 76 77 76 75 73 72 71 70 69 69 70 71 71 72 72 72 72 72 73 74 75 76 78 78 79 78 78 79 79 79 79 79 79 78 78 79 79 78 78 77 75 73 71 69 68 67 66 66 66 66 67 68 68 69 70 70 71 71 71 70
55 57 61 65 67 67 65 64 62 62 61 60 62 65 66 65 65 65 66 65 65 66 68 70 72 74 76 76 77 78 78 77 77 77 76 76 76 77 78 79 79 80 80 81 81 82 82 83 82 82 80 79 79 79 79 79 79 79 78 78 78 78 77 76 75 74 73 71 70 69 69 68 68 68 70 72 74 75 75 74 73 73 73 73 72 71
55 53 52 53 53 53 54 53 49 47 47 49 54 60 62 62 61 61 62 59 56 54 53 54 58 64 68 71 72 73 74 74 75 76 76 77 78 78 79 80 81 82 83 83 84 84 83 83 82 81 79 78 77 77 77 77 78 77 76 75 75 75 74 73 72 72 72 72 73 73 74 75 76 77 78 79 80 80 80 79 77 75 74 73 72 71
65 63 61 59 55 53 54 54 52 51 50 49 49 51 53 56 58 59 60 59 58 57 54 52 52 53 56 60 62 64 66 67 69 70 71 72 72 73 74 75 76 76 77 78 79 80 81 81 81 80 79 78 77 77 76 77 77 76 74 73 73 73 74 74 76 77 78 79 80 82 83 83 84 84 84 84 83 81 81 80 79 77 76 75 74 73
62 64 66 67 67 65 63 62 62 62 62 59 57 55 54 53 55 57 59 59 60 60 61 60 59 57 56 57 58 59 61 62 63 64 64 65 66 67 68 70 72 74 75 76 77 78 79 79 79 79 79 78 78 78 77 77 77 77 77 78 78 80 81 82 83 84 85 85 85 86 86 86 86 86 85 84 83 82 80 79 78 77 77 77 77 77
57 58 60 62 64 65 64 63 62 63 63 62 62 62 61 60 59 59 60 61 61 61 62 62 62 61 60 59 60 61 62 63 64 65 66 68 69 70 72 73 74 74 74 74 75 75 75 76 76 77 78 78 79 79 80 81 82 84 85 85 86 86 86 86 85 85 84 84 84 84 84 84 84 84 83 82 81 79 77 76 75 75 76 77 78 78
58 58 58 60 61 61 61 61 61 61 61 61 62 63 64 66 66 65 65 66 66 66 66 65 65 65 65 64 65 66 66 67 69 70 72 72 71 71 71 70 70 70 70 70 71 72 73 75 77 79 80 82 83 84 85 86 87 87 87 86 86 85 84 83 82 81 80 80 79 79 79 79 79 79 79 77 76 74 73 72 71 71 71 73 74 74
68 66 65 66 66 64 62 62 62 62 61 62 63 64 64 65 65 66 67 68 70 71 71 72 72 72 72 72 73 74 74 74 75 75 76 76 75 75 74 73 73 72 72 73 75 77 79 81 83 84 85 85 85 86 85 85 85 84 83 82 81 80 79 77 76 75 74 73 72 72 73 73 73 73 72 71 69 67 66 66 66 66 66 66 67 66
80 80 79 79 79 77 74 72 71 70 69 69 71 71 71 70 71 72 72 74 75 77 78 78 79 80 80 81 81 82 82 82 82 82 82 81 81 81 80 80 80 80 80 81 82 83 84 85 85 85 84 83 83 82 81 80 80 78 77 76 75 74 72 70 69 68 67 68 68 68 69 69 70 69 68 67 65 62 60 59 60 61 62 62 61 60
Wind_Direction
222 222 222 223 224 226 226 226 226 226 225 224 224 226 229 230 229 230 231 234 237 238 242 244 239 230 234 241 245 249 249 248 254 264 274 282 289 296 301 305 309 313 315 318 322 322 321 321 321 323 323 322 319 310 305 305 306 302 298 294 291 290 291 290 290 290 290 291 292 293 295 296 297 299 300 300 300 300 301 302 301 300 300 300 299 298
224 224 224 226 227 227 228 228 228 229 228 227 226 227 230 233 233 234 235 236 240 241 242 245 241 229 231 237 239 247 252 253 256 262 270 277 285 291 295 301 305 310 313 316 319 320 320 319 320 321 321 320 318 312 303 300 301 303 301 298 295 295 295 296 296 295 294 294 294 295 296 297 298 300 300 300 300 300 300 301 300 298 299 298 297 297
226 226 227 228 228 228 230 231 231 232 231 230 229 228 230 234 237 239 240 239 242 244 244 246 244 231 229 237 239 244 250 253 259 263 267 274 281 286 290 296 300 306 310 312 316 319 318 317 318 319 319 318 316 312 305 297 294 296 297 297 297 298 299 299 299 297 295 295 295 296 296 297 299 300 299 299 299 300 300 300 299 298 298 297 297 297
229 230 230 230 230 230 232 233 233 234 233 232 232 232 232 234 238 241 244 245 245 248 246 247 248 238 229 235 241 246 250 253 259 265 269 275 280 284 287 291 297 302 305 306 312 316 315 315 315 316 316 316 314 311 306 298 292 291 292 294 296 298 299 300 299 298 296 296 296 297 297 299 302 301 300 299 299 299 300 300 299 298 297 297 298 297
231 232 232 232 232 232 233 234 235 236 237 235 234 235 235 236 239 242 246 248 248 250 250 250 251 245 235 235 239 244 251 254 257 262 270 275 279 282 285 289 295 298 300 303 307 311 312 312 312 313 314 315 313 310 307 301 293 289 288 290 293 295 298 300 300 299 297 297 297 299 301 304 306 306 304 302 301 301 301 300 299 299 298 298 298 296
233 234 234 235 235 235 236 237 237 238 240 238 236 237 238 238 241 243 247 249 250 251 253 256 257 252 242 240 240 243 249 254 258 262 269 275 278 281 284 289 294 296 297 300 304 307 308 309 309 309 312 314 313 310 308 305 298 291 288 288 290 292 297 301 300 298 297 298 299 300 302 304 307 308 307 306 306 305 303 300 299 299 299 298 298 296
236 237 237 238 238 238 239 240 240 240 241 241 239 239 240 241 242 244 246 250 252 252 253 257 261 259 249 243 244 246 247 250 256 262 268 274 278 282 285 288 291 293 295 298 301 304 305 307 307 307 309 312 313 311 308 306 303 298 292 290 290 292 296 300 299 298 298 298 299 299 300 302 304 305 306 307 308 308 305 301 299 299 299 299 298 296
239 240 241 242 243 242 241 242 243 243 243 243 242 242 243 244 244 245 247 249 252 253 253 255 261 263 256 248 249 249 248 250 255 261 265 269 275 281 284 287 289 290 292 295 298 301 303 304 305 305 307 310 311 310 308 306 305 302 297 294 292 293 295 297 298 297 297 297 298 299 299 301 302 303 304 306 307 308 307 303 300 299 299 298 297 295
240 242 242 242 243 243 243 244 245 246 246 245 245 245 246 247 247 247 248 249 251 253 255 255 260 265 263 260 260 254 250 252 256 259 262 266 271 276 280 284 286 287 290 293 295 297 299 301 302 303 304 306 307 307 306 305 305 303 300 296 294 293 293 294 295 296 296 296 297 298 299 300 301 302 303 304 305 305 306 304 300 298 297 297 296 295
241 242 244 244 244 245 245 246 247 248 249 248 248 248 248 248 249 249 249 250 252 253 256 257 259 265 268 266 266 263 260 258 258 261 265 268 270 271 275 279 281 284 286 289 290 292 296 298 299 300 301 302 303 303 304 303 302 302 301 297 294 291 291 292 293 294 294 295 296 297 299 301 302 301 302 303 303 303 303 303 300 297 295 295 295 293
243 244 246 248 248 247 248 249 250 250 251 251 251 251 251 251 250 251 252 253 254 255 257 259 259 264 266 265 267 270 269 266 265 267 269 270 270 271 274 276 279 282 284 286 287 289 292 294 296 298 298 298 298 300 301 300 299 299 299 296 293 290 290 290 291 293 294 295 296 297 299 301 302 301 301 301 301 301 301 301 299 297 294 293 293 292
245 246 248 250 250 250 250 250 250 251 251 251 252 252 252 253 253 253 253 254 255 256 258 260 260 261 262 266 272 274 274 274 275 275 273 273 273 274 276 277 279 281 282 283 285 287 288 290 292 294 294 294 294 297 298 297 296 296 296 295 293 290 289 289 291 293 294 295 295 296 298 300 300 301 301 300 299 299 299 299 298 296 295 293 292 292
248 247 248 249 250 250 249 249 249 250 251 251 252 253 254 255 256 255 255 255 255 257 258 260 261 261 262 267 273 275 279 282 282 280 279 279 278 278 278 279 279 280 281 282 283 284 286 287 289 290 290 290 292 294 295 294 294 294 294 294 292 290 289 289 292 294 294 294 295 295 297 299 300 301 301 299 298 296 296 296 296 295 294 294 293 292
247 247 247 248 249 250 251 252 252 253 254 253 253 254 255 255 256 256 256 256 256 257 259 260 262 263 264 266 270 275 280 283 282 281 281 282 282 282 282 282 281 281 282 282 283 284 285 286 286 286 286 287 289 291 292 293 293 293 292 292 291 290 289 290 292 293 294 294 295 295 296 299 301 301 301 300 298 295 294 294 294 294 293 292 292 290
249 249 249 250 251 251 252 253 253 252 252 252 252 251 252 254 256 257 257 257 258 258 258 259 261 263 267 269 271 272 275 278 279 280 281 283 284 284 284 285 285 285 284 284 284 284 284 284 284 285 285 285 286 288 290 292 292 292 291 289 289 289 289 290 291 291 292 293 294 294 296 299 301 301 299 298 297 296 295 295 294 294 292 291 289 288
251 252 252 252 252 252 252 251 250 251 251 251 251 252 254 256 257 258 258 259 259 258 258 258 260 264 268 270 271 271 271 272 275 279 282 283 283 284 285 285 286 286 285 285 284 283 283 282 283 283 283 283 284 286 287 289 290 290 289 288 289 289 290 290 290 290 291 291 293 294 295 297 298 297 296 295 296 295 295 295 295 294 292 291 289 287
251 252 251 251 251 251 251 251 250 251 251 252 253 255 258 258 256 257 258 259 259 259 258 259 261 264 267 269 270 271 272 272 275 278 281 281 282 283 285 286 286 287 287 286 284 282 281 281 282 282 282 283 284 285 286 287 287 288 288 289 290 291 291 292 291 291 291 291 292 293 294 294 294 293 293 293 294 294 294 294 294 293 292 290 289 287
250 250 250 250 249 249 249 250 249 249 250 252 254 256 256 255 255 255 256 257 257 259 261 261 264 265 265 267 268 269 271 274 275 276 277 277 279 281 282 284 286 288 289 288 285 282 280 280 281 282 283 284 284 285 286 285 286 288 290 291 292 293 294 294 294 292 291 291 291 291 291 291 291 291 291 292 292 292 292 292 292 291 290 289 288 287
250 251 251 250 250 250 249 249 249 250 252 254 255 254 253 253 254 254 255 257 258 261 262 263 265 265 264 266 268 270 271 273 273 274 275 276 277 278 278 281 285 288 289 288 286 283 283 283 283 282 282 283 283 285 286 287 289 291 292 293 294 295 296 295 294 292 289 288 288 288 289 290 292 292 291 291 291 291 291 291 290 289 288 287 287 286
252 252 251 251 251 251 250 250 252 254 255 255 255 254 254 254 256 255 256 257 259 261 263 264 264 264 265 266 268 269 270 271 272 273 275 276 277 278 279 281 283 285 286 285 284 283 283 284 283 282 282 283 284 285 286 289 291 292 293 294 294 294 293 293 291 289 287 286 285 286 289 292 293 293 292 291 291 290 290 290 290 288 286 285 285 285
249 250 251 251 251 251 251 253 254 255 254 253 253 253 253 254 256 257 257 258 259 260 262 263 262 264 266 266 267 268 269 270 271 273 274 275 278 280 281 281 281 281 281 282 282 281 281 281 281 281 282 284 285 286 288 290 292 294 294 293 291 291 291 291 290 289 287 286 286 287 290 293 294 294 293 292 291 291 291 290 289 287 286 284 283 283
246 249 250 250 250 251 253 253 252 250 249 249 249 251 252 253 253 254 255 256 256 256 258 260 262 265 266 266 266 267 269 270 271 272 274 276 278 279 279 279 278 277 276 277 277 278 279 279 279 279 281 283 285 287 288 291 293 294 293 291 290 291 291 291 290 289 289 289 290 291 293 294 294 293 293 293 292 291 291 290 289 287 286 284 282 281
243 245 246 247 248 250 250 248 247 247 247 246 247 249 250 251 251 252 253 254 254 253 255 257 261 266 268 267 268 268 269 270 271 273 275 277 278 278 277 277 275 273 272 273 274 276 278 279 279 280 282 284 284 285 287 290 292 292 291 291 291 291 290 290 290 290 291 292 293 294 295 296 295 294 293 292 292 291 290 289 288 287 286 284 282 280
239 240 242 244 245 245 245 245 245 246 245 246 247 249 249 250 251 250 250 251 250 251 255 256 260 267 270 269 270 270 270 271 272 275 277 277 276 276 275 275 273 271 270 271 274 277 279 280 281 283 285 285 284 285 287 290 290 289 290 291 291 290 290 290 289 289 290 292 294 296 297 298 297 295 294 292 292 291 290 290 288 287 286 283 281 280
239 240 241 243 243 243 244 245 246 247 248 248 249 248 248 248 248 247 247 248 249 253 257 257 261 268 270 269 271 271 272 273 274 275 275 274 273 273 273 274 274 275 276 276 277 278 280 282 284 285 285 285 286 287 289 289 288 288 288 289 288 288 288 288 288 288 290 292 294 296 298 299 298 297 295 294 293 291 291 290 289 288 285 282 280 279
239 240 240 241 243 244 246 248 251 252 252 252 251 250 250 249 249 250 251 251 253 257 258 259 262 267 268 268 269 270 271 273 274 274 273 273 274 274 274 276 278 280 281 280 278 278 280 283 285 285 285 285 286 289 290 289 287 287 287 286 286 285 285 286 287 289 290 292 293 295 297 298 297 296 295 295 294 293 291 290 289 288 285 282 280 279
240 240 240 240 243 245 248 251 252 252 251 251 251 250 250 250 250 251 251 251 255 258 258 259 263 266 266 267 268 270 272 272 272 272 272 273 274 274 275 276 279 280 281 280 279 279 281 283 284 284 285 286 288 289 289 288 288 288 287 286 284 283 284 285 287 289 290 291 292 295 296 295 294 293 293 294 294 293 291 290 290 289 287 284 281 279
243 243 242 243 244 246 248 249 249 250 250 250 250 249 249 249 249 249 250 253 257 257 258 261 264 265 266 268 268 269 270 271 271 272 273 273 273 274 276 277 278 279 279 279 280 281 281 281 282 283 285 286 288 287 287 288 288 288 287 287 285 284 284 284 285 287 288 290 293 294 294 293 291 291 291 293 294 293 290 288 288 288 288 285 282 280
246 246 245 246 246 246 247 248 249 250 251 251 251 251 251 250 250 251 254 258 258 257 260 263 263 264 266 267 266 266 267 268 270 272 273 274 275 277 278 278 278 278 279 280 281 281 281 281 282 284 285 286 286 286 287 288 288 287 288 288 288 287 286 284 285 286 288 291 294 294 293 292 291 290 290 291 293 292 289 287 286 286 286 285 283 281
248 248 248 248 248 247 247 248 249 250 251 251 251 251 252 252 253 255 257 259 258 258 260 262 261 263 265 265 266 267 267 268 269 270 271 273 275 277 278 278 278 279 279 280 280 281 281 282 283 283 284 284 286 287 289 288 288 289 290 289 289 288 287 286 286 287 289 293 294 293 293 293 292 291 291 291 292 292 290 288 286 285 284 284 283 282
249 250 249 249 250 248 247 248 250 250 251 252 252 252 252 253 255 256 257 257 257 259 261 262 262 263 264 265 266 267 268 267 267 268 269 270 271 273 274 275 277 278 279 279 280 281 281 282 282 282 284 286 288 289 289 289 289 290 290 290 290 289 289 289 289 289 291 293 293 291 292 292 292 292 293 292 292 291 291 289 288 286 285 284 283 282
250 251 249 249 250 248 246 248 250 251 251 251 251 253 255 256 257 257 257 258 259 260 262 262 262 264 266 266 266 266 265 266 266 267 268 269 270 270 270 272 274 276 276 277 278 279 280 281 283 284 286 288 289 289 289 290 290 290 290 290 290 290 290 291 291 291 293 293 292 292 292 291 291 293 293 292 292 292 291 290 288 287 285 284 283 282
253 253 252 251 252 250 247 247 249 250 250 249 250 254 257 259 260 260 259 260 260 261 261 261 263 264 265 265 265 264 264 265 266 267 268 269 268 267 268 271 273 273 273 274 276 277 279 280 282 284 285 286 286 287 289 289 289 290 290 290 290 289 289 289 290 292 293 294 294 295 293 291 290 291 291 291 291 291 291 290 288 286 285 283 282 282
251 253 253 254 255 253 250 248 249 249 248 249 251 253 255 257 259 260 261 260 260 260 260 261 262 263 264 265 266 268 267 266 265 265 266 267 267 266 268 271 271 271 271 273 274 275 277 279 280 280 281 281 283 284 286 287 288 289 289 289 289 288 287 287 288 290 292 293 295 295 294 291 291 291 291 291 290 290 290 289 287 285 284 284 283 282
246 248 250 251 252 252 250 248 248 249 250 251 249 248 250 254 257 260 261 261 262 263 263 263 264 266 267 267 267 267 266 264 262 263 264 265 265 267 269 270 269 269 270 272 273 274 276 276 277 277 278 279 282 284 285 286 287 288 289 289 289 289 288 288 288 289 290 292 293 293 292 291 291 292 292 291 290 289 288 287 286 284 284 284 283 283
244 246 247 248 249 250 249 248 249 251 253 252 249 248 250 254 257 260 262 263 265 268 270 270 270 269 268 266 264 263 261 260 260 263 265 265 264 265 266 267 267 267 269 271 272 273 274 275 275 276 278 280 283 285 286 287 287 287 288 288 288 288 288 288 289 289 289 290 291 291 291 291 291 292 292 290 288 287 286 284 283 282 282 282 283 282
240 242 243 245 247 248 249 251 253 255 256 254 252 253 255 256 259 262 264 264 264 267 270 271 272 272 271 269 267 265 262 260 260 261 264 264 263 263 264 264 265 266 268 269 271 272 273 274 276 277 279 281 284 286 287 288 287 287 287 287 286 286 286 287 287 288 289 290 290 291 291 292 292 291 291 289 287 285 283 282 281 281 281 281 281 281
236 238 239 241 243 244 246 248 251 254 256 255 253 256 259 259 260 263 263 263 263 265 267 269 271 272 271 269 267 266 266 265 263 261 262 263 264 264 265 266 266 268 269 270 271 272 274 275 276 278 279 281 284 286 287 287 287 286 286 286 285 285 285 285 286 287 289 290 290 290 291 291 291 290 289 288 286 283 281 280 280 279 279 279 279 279
234 235 236 236 238 239 239 241 244 249 256 258 257 258 260 260 261 262 261 262 263 264 265 266 267 267 265 264 264 265 266 267 266 265 265 267 268 268 268 269 270 270 271 272 273 274 274 275 277 278 280 281 284 285 285 285 285 285 285 284 284 285 285 285 286 288 289 289 289 290 290 290 290 289 288 286 285 282 280 279 278 278 278 278 278 278
235 235 235 236 237 237 237 239 240 244 251 257 258 258 258 258 258 258 257 260 263 262 261 262 262 261 260 261 262 264 265 268 269 269 269 270 271 272 272 272 272 272 272 272 273 273 274 275 276 277 278 280 282 283 283 283 283 283 283 284 284 285 285 286 288 289 289 289 289 289 289 289 289 288 287 286 284 282 280 279 279 279 279 278 278 277
241 240 240 240 241 240 241 243 242 241 243 248 252 253 254 255 254 253 255 260 261 259 257 257 257 256 258 259 259 260 262 265 266 267 268 269 270 271 271 271 270 270 270 270 270 271 271 273 274 275 277 279 280 281 281 281 282 283 283 284 285 285 285 287 288 288 288 288 288 288 288 288 288 287 286 285 284 282 282 281 281 281 281 280 279 279
247 247 247 246 246 246 247 249 251 248 242 239 242 246 249 251 252 253 255 258 258 258 257 255 255 256 259 259 259 258 259 259 261 262 262 263 264 266 266 267 267 268 268 268 269 269 270 271 273 275 277 278 279 280 281 281 282 283 283 284 284 284 285 286 286 286 286 287 286 286 286 285 285 284 283 283 283 283 283 283 283 283 282 281 281 280
250 251 252 251 251 252 254 256 258 257 250 243 242 245 247 249 251 253 255 256 257 258 258 258 257 258 259 260 261 261 260 261 262 262 262 263 264 265 266 267 267 267 268 268 269 270 272 273 275 276 277 278 279 279 280 281 282 282 283 283 283 284 284 285 285 284 284 284 284 283 283 282 281 281 281 281 282 283 284 285 284 284 282 281 281 281
250 251 253 254 254 255 257 258 260 261 258 253 250 249 251 252 253 254 254 255 257 258 258 259 259 259 258 259 260 261 262 262 263 263 264 264 264 265 266 267 268 268 269 270 271 272 273 274 275 276 277 277 277 278 278 279 280 281 282 282 282 282 282 282 282 282 282 282 281 281 280 279 279 279 280 281 282 283 284 284 284 283 282 281 280 280
247 248 251 253 252 252 254 255 256 256 256 255 253 253 253 254 253 253 253 252 252 252 252 253 255 257 258 258 258 259 260 261 262 263 263 263 264 265 266 266 267 268 269 270 271 272 273 274 275 276 276 276 276 276 277 278 278 279 279 279 279 280 280 280 280 280 280 280 280 280 280 279 279 279 280 281 282 283 283 283 283 282 281 279 278 279
247 247 247 247 246 246 248 249 250 250 251 253 253 253 254 254 253 253 252 251 250 250 249 249 251 253 255 257 257 258 259 260 260 261 262 262 263 263 264 265 266 267 268 269 270 272 273 274 275 275 276 276 276 276 277 277 278 278 278 278 278 278 278 279 279 279 280 280 281 281 281 282 282 282 282 282 282 282 282 282 281 280 279 278 278 278
243 244 244 245 245 245 246 248 249 251 252 252 252 251 249 249 250 251 252 252 252 252 253 253 253 252 253 254 256 257 259 259 259 259 260 261 262 262 264 265 267 268 269 270 271 271 272 273 274 275 276 276 277 277 277 278 278 278 279 279 279 279 279 280 280 281 281 282 282 282 283 283 283 283 283 283 283 282 282 281 280 279 277 276 276 277
234 236 238 239 240 240 241 243 245 246 247 247 248 247 246 245 246 248 250 252 253 254 253 253 252 252 252 253 254 255 256 258 259 260 261 263 265 267 268 269 269 270 270 270 270 271 271 272 273 274 275 276 276 276 277 278 279 279 280 280 280 280 281 281 281 282 282 282 282 282 282 282 282 283 283 283 283 283 283 282 281 280 278 276 277 278
230 232 234 236 236 236 237 239 241 242 243 243 244 245 246 247 248 249 251 253 253 253 253 253 253 253 253 254 256 257 257 258 260 262 264 265 267 268 268 268 268 268 268 268 268 269 270 271 271 272 274 275 276 276 277 278 279 279 280 280 281 281 281 281 281 281 281 281 281 281 281 281 281 282 283 284 284 284 284 283 283 282 281 280 279 280
237 238 240 241 242 240 240 240 242 243 244 245 246 248 249 250 251 253 253 255 255 255 255 256 257 258 259 259 260 261 262 262 263 264 265 267 267 267 267 267 266 266 266 267 267 268 270 271 272 273 274 275 276 277 278 279 279 280 280 280 280 281 281 281 281 280 280 280 280 280 280 281 281 282 283 284 284 285 285 285 284 284 283 283 283 282
244 245 247 248 248 247 246 247 248 249 249 250 252 255 256 257 259 259 259 260 261 261 261 261 262 263 264 266 266 267 267 267 267 268 268 269 269 269 269 269 269 268 268 268 269 270 272 273 274 275 276 277 278 278 279 279 280 280 280 280 280 280 280 280 279 279 279 280 281 281 281 282 282 283 283 283 283 284 284 286 287 286 285 284 283 281
Height
5824 5826 5828 5831 5833 5834 5836 5837 5838 5839 5841 5843 5845 5846 5848 5849 5850 5851 5852 5853 5854 5855 5857 5857 5858 5860 5861 5862 5862 5863 5864 5865 5865 5865 5865 5865 5866 5866 5866 5865 5865 5865 5865 5865 5864 5864 5862 5861 5861 5860 5860 5859 5858 5857 5856 5855 5853 5853 5852 5851 5850 5849 5849 5849 5848 5848 5847 5846 5845 5845 5845 5844 5844 5843 5841 5839 5837 5836 5836 5835 5833 5832 5831 5830 5828 5828
5821 5824 5826 5828 5830 5831 5832 5834 5835 5837 5839 5841 5843 5844 5845 5846 5847 5848 5849 5850 5851 5852 5854 5854 5855 5858 5859 5859 5860 5861 5862 5863 5863 5863 5863 5864 5864 5864 5864 5864 5863 5863 5862 5862 5862 5862 5861 5860 5859 5858 5858 5857 5856 5855 5854 5853 5852 5851 5850 5849 5848 5847 5847 5846 5846 5845 5844 5843 5842 5842 5841 5841 5840 5839 5838 5836 5834 5832 5831 5831 5829 5828 5827 5826 5825 5824
5819 5821 5823 5824 5826 5828 5830 5831 5833 5835 5837 5838 5840 5842 5843 5844 5844 5845 5846 5847 5849 5850 5852 5851 5851 5855 5857 5856 5858 5859 5859 5861 5861 5861 5861 5862 5862 5862 5862 5862 5861 5861 5860 5860 5860 5859 5858 5857 5856 5856 5855 5854 5854 5853 5852 5851 5850 5849 5848 5847 5846 5845 5845 5844 5843 5842 5841 5840 5839 5838 5838 5837 5836 5835 5834 5832 5830 5828 5826 5826 5825 5824 5823 5822 5821 5820
5816 5818 5819 5821 5823 5825 5827 5828 5830 5832 5833 5835 5837 5839 5840 5841 5841 5842 5842 5844 5846 5847 5848 5848 5848 5851 5854 5854 5855 5856 5857 5859 5859 5858 5859 5859 5860 5860 5859 5860 5859 5859 5859 5858 5858 5857 5856 5854 5853 5853 5853 5852 5851 5850 5850 5849 5848 5847 5846 5845 5844 5843 5842 5841 5840 5839 5838 5837 5836 5835 5834 5834 5833 5832 5830 5829 5827 5825 5823 5821 5820 5820 5819 5818 5817 5816
5813 5814 5816 5818 5820 5822 5823 5825 5827 5829 5830 5832 5834 5835 5836 5838 5838 5839 5840 5841 5843 5844 5844 5845 5845 5847 5851 5851 5853 5854 5855 5855 5856 5856 5856 5857 5857 5857 5857 5857 5857 5856 5856 5856 5856 5855 5853 5852 5851 5850 5850 5849 5848 5847 5847 5846 5845 5844 5843 5843 5842 5841 5840 5839 5838 5837 5836 5834 5833 5832 5831 5830 5830 5829 5827 5826 5824 5822 5820 5818 5816 5815 5815 5814 5814 5812
5809 5811 5813 5815 5817 5819 5821 5822 5824 5826 5827 5829 5831 5832 5833 5834 5835 5836 5837 5838 5840 5841 5842 5842 5840 5841 5846 5849 5850 5853 5853 5852 5852 5853 5854 5854 5854 5854 5854 5854 5854 5853 5853 5853 5853 5852 5851 5850 5848 5847 5847 5846 5845 5844 5843 5843 5842 5841 5841 5840 5839 5838 5837 5836 5835 5834 5833 5831 5830 5829 5828 5827 5826 5825 5824 5822 5821 5819 5817 5815 5813 5812 5811 5810 5810 5809
5806 5808 5810 5812 5814 5816 5818 5819 5821 5822 5823 5825 5827 5828 5829 5831 5832 5833 5834 5835 5836 5838 5839 5839 5837 5835 5840 5845 5848 5850 5850 5849 5849 5851 5852 5852 5852 5851 5851 5851 5851 5850 5850 5850 5850 5849 5847 5846 5846 5844 5843 5843 5842 5841 5840 5839 5838 5838 5837 5837 5836 5835 5834 5833 5832 5831 5830 5828 5827 5826 5825 5824 5823 5822 5821 5819 5817 5816 5814 5812 5810 5809 5807 5806 5806 5805
5803 5805 5807 5809 5811 5813 5815 5816 5816 5818 5819 5821 5823 5825 5825 5827 5828 5830 5831 5832 5833 5834 5835 5836 5835 5831 5832 5840 5845 5846 5846 5846 5847 5849 5849 5849 5850 5849 5848 5848 5847 5846 5846 5847 5846 5845 5844 5843 5842 5841 5840 5839 5838 5837 5836 5835 5835 5834 5834 5833 5832 5831 5831 5830 5829 5828 5826 5825 5824 5823 5822 5821 5820 5818 5817 5816 5814 5813 5811 5809 5808 5806 5804 5803 5802 5801
5799 5801 5803 5805 5807 5808 5810 5811 5812 5814 5815 5817 5819 5821 5822 5823 5825 5826 5827 5829 5829 5830 5831 5833 5834 5829 5827 5834 5839 5840 5842 5843 5845 5846 5846 5847 5848 5847 5846 5845 5844 5844 5844 5844 5843 5842 5841 5839 5838 5837 5837 5836 5835 5834 5833 5832 5831 5830 5830 5829 5829 5828 5827 5826 5825 5824 5823 5822 5821 5820 5819 5818 5817 5815 5814 5813 5811 5809 5808 5806 5804 5803 5801 5800 5799 5798
5795 5797 5798 5800 5803 5805 5807 5807 5808 5810 5811 5813 5815 5816 5818 5820 5821 5822 5823 5826 5826 5827 5828 5830 5832 5829 5824 5827 5832 5833 5836 5839 5841 5842 5843 5844 5845 5844 5843 5843 5842 5841 5841 5841 5840 5839 5838 5836 5835 5834 5833 5832 5831 5830 5829 5828 5828 5827 5826 5826 5825 5824 5823 5822 5821 5820 5819 5818 5818 5817 5815 5814 5813 5812 5810 5809 5808 5806 5804 5803 5801 5800 5798 5797 5796 5795
5791 5793 5795 5797 5799 5801 5803 5804 5805 5806 5807 5809 5811 5812 5814 5815 5816 5818 5819 5822 5823 5823 5825 5826 5829 5829 5822 5820 5826 5828 5829 5834 5837 5838 5839 5839 5840 5840 5840 5839 5839 5838 5838 5837 5836 5836 5835 5833 5832 5830 5830 5829 5828 5827 5826 5825 5824 5823 5823 5822 5821 5820 5818 5817 5817 5817 5816 5815 5814 5813 5812 5811 5809 5808 5807 5805 5804 5802 5801 5799 5798 5796 5795 5794 5793 5791
5788 5790 5792 5794 5795 5797 5799 5800 5801 5801 5803 5804 5805 5807 5808 5809 5811 5814 5816 5818 5818 5819 5822 5821 5824 5826 5820 5818 5823 5822 5822 5827 5831 5832 5833 5834 5834 5835 5835 5835 5835 5835 5834 5833 5832 5832 5832 5830 5829 5827 5826 5825 5824 5823 5822 5822 5821 5820 5819 5818 5817 5816 5814 5814 5813 5813 5812 5811 5810 5809 5808 5807 5805 5804 5803 5801 5800 5798 5797 5795 5794 5793 5791 5790 5789 5788
5783 5785 5787 5789 5790 5792 5794 5795 5795 5796 5798 5799 5801 5803 5803 5805 5807 5809 5812 5813 5813 5816 5817 5817 5818 5820 5818 5819 5820 5817 5817 5821 5823 5825 5826 5827 5829 5829 5829 5829 5830 5830 5829 5829 5828 5828 5827 5826 5825 5824 5822 5821 5821 5820 5819 5818 5817 5816 5815 5814 5813 5812 5810 5810 5810 5809 5808 5807 5806 5805 5804 5803 5801 5800 5799 5797 5796 5794 5792 5791 5790 5789 5788 5786 5785 5783
5777 5779 5782 5784 5786 5787 5789 5791 5792 5793 5794 5795 5797 5799 5799 5800 5802 5804 5806 5807 5809 5812 5812 5812 5814 5813 5814 5818 5818 5817 5816 5815 5816 5817 5819 5820 5822 5822 5822 5822 5823 5824 5824 5824 5823 5823 5822 5822 5821 5820 5819 5818 5817 5816 5815 5814 5813 5812 5811 5810 5809 5807 5806 5806 5805 5805 5804 5802 5801 5800 5800 5798 5797 5796 5795 5793 5791 5789 5787 5786 5785 5785 5783 5782 5781 5779
5771 5773 5777 5780 5781 5784 5785 5786 5787 5788 5788 5790 5792 5792 5793 5796 5797 5798 5800 5801 5804 5807 5807 5807 5808 5808 5811 5814 5815 5816 5815 5812 5809 5810 5813 5815 5816 5815 5815 5815 5816 5817 5818 5818 5817 5817 5817 5816 5815 5815 5814 5814 5814 5813 5811 5809 5808 5808 5807 5806 5805 5803 5803 5802 5801 5801 5800 5798 5797 5796 5795 5794 5793 5791 5790 5788 5786 5784 5782 5781 5780 5780 5779 5777 5776 5774
5766 5768 5773 5774 5776 5779 5780 5780 5781 5782 5783 5784 5785 5787 5790 5793 5794 5793 5794 5796 5799 5799 5800 5803 5803 5805 5809 5809 5810 5811 5811 5809 5807 5806 5808 5809 5810 5810 5809 5808 5809 5810 5811 5812 5812 5812 5811 5810 5810 5810 5809 5809 5809 5808 5807 5805 5804 5804 5803 5802 5801 5800 5799 5798 5797 5797 5796 5794 5793 5791 5790 5790 5788 5786 5785 5783 5782 5780 5778 5777 5776 5775 5773 5772 5771 5769
5761 5763 5766 5768 5770 5773 5773 5774 5776 5776 5778 5779 5780 5784 5788 5788 5788 5787 5788 5791 5792 5791 5794 5798 5799 5803 5806 5804 5804 5805 5804 5805 5804 5804 5804 5804 5804 5805 5804 5802 5801 5803 5805 5806 5806 5805 5804 5804 5804 5804 5804 5804 5803 5803 5802 5800 5800 5800 5799 5798 5797 5796 5795 5795 5794 5793 5792 5790 5789 5787 5785 5784 5783 5782 5780 5779 5777 5775 5774 5772 5771 5770 5768 5766 5765 5763
5754 5755 5758 5762 5764 5766 5767 5767 5769 5771 5772 5774 5777 5782 5782 5781 5781 5782 5782 5784 5785 5784 5789 5793 5794 5798 5800 5799 5800 5801 5799 5800 5801 5800 5800 5800 5800 5801 5800 5798 5796 5797 5799 5799 5799 5798 5798 5799 5799 5799 5798 5798 5797 5797 5796 5795 5795 5795 5794 5793 5792 5791 5790 5790 5789 5788 5787 5785 5783 5781 5780 5779 5778 5777 5776 5774 5772 5770 5769 5767 5766 5764 5763 5761 5759 5758
5747 5749 5752 5755 5757 5759 5760 5760 5762 5766 5768 5769 5773 5775 5774 5774 5775 5776 5776 5778 5780 5779 5782 5788 5789 5790 5793 5794 5795 5796 5796 5796 5795 5794 5794 5795 5796 5797 5797 5796 5794 5792 5793 5793 5792 5791 5791 5793 5794 5793 5793 5792 5792 5791 5790 5789 5789 5789 5789 5788 5787 5786 5785 5784 5784 5783 5781 5780 5778 5776 5774 5773 5773 5772 5771 5769 5767 5765 5763 5762 5760 5759 5757 5755 5753 5752
5741 5742 5745 5748 5750 5752 5753 5754 5758 5762 5763 5764 5767 5767 5767 5769 5769 5770 5771 5772 5774 5774 5776 5781 5782 5782 5787 5790 5790 5790 5791 5790 5790 5789 5789 5789 5790 5791 5792 5794 5793 5790 5788 5787 5786 5785 5785 5786 5787 5787 5787 5786 5786 5785 5784 5784 5784 5783 5783 5782 5781 5780 5779 5778 5777 5776 5775 5774 5772 5771 5769 5768 5767 5766 5765 5764 5762 5760 5758 5756 5755 5753 5751 5749 5748 5746
5733 5735 5738 5741 5742 5743 5746 5751 5755 5757 5757 5758 5759 5760 5762 5764 5763 5764 5765 5766 5768 5769 5769 5771 5773 5776 5782 5785 5785 5784 5784 5785 5785 5784 5784 5784 5785 5786 5786 5788 5789 5787 5784 5782 5780 5779 5779 5780 5780 5780 5780 5780 5779 5778 5778 5779 5778 5777 5777 5776 5775 5774 5773 5772 5771 5769 5768 5768 5767 5766 5765 5764 5762 5760 5759 5757 5756 5754 5752 5750 5748 5747 5745 5744 5742 5740
5727 5729 5731 5732 5734 5738 5743 5747 5748 5748 5748 5750 5752 5753 5756 5758 5757 5757 5757 5759 5761 5761 5762 5763 5764 5771 5777 5778 5779 5779 5778 5779 5779 5778 5778 5780 5781 5781 5780 5781 5783 5782 5780 5778 5776 5773 5773 5774 5773 5773 5775 5775 5774 5773 5772 5773 5772 5771 5770 5769 5768 5767 5766 5765 5764 5763 5762 5761 5761 5761 5760 5758 5757 5755 5753 5751 5750 5748 5746 5744 5743 5741 5739 5738 5736 5734
5723 5722 5722 5724 5728 5733 5736 5737 5737 5739 5741 5742 5744 5747 5749 5749 5749 5749 5749 5752 5753 5753 5757 5757 5756 5765 5771 5771 5773 5774 5773 5773 5772 5772 5774 5775 5775 5775 5774 5774 5775 5775 5775 5774 5771 5768 5768 5768 5767 5767 5769 5769 5768 5767 5767 5767 5766 5764 5763 5762 5761 5761 5759 5758 5758 5757 5756 5755 5754 5754 5754 5752 5751 5749 5747 5745 5743 5742 5740 5739 5737 5735 5734 5732 5730 5728
5714 5712 5714 5717 5720 5723 5725 5726 5729 5731 5732 5733 5736 5741 5742 5741 5742 5742 5741 5744 5743 5745 5751 5750 5748 5758 5766 5765 5765 5767 5766 5766 5766 5768 5769 5768 5768 5767 5766 5765 5765 5766 5769 5769 5767 5764 5761 5760 5761 5761 5762 5762 5761 5761 5761 5761 5760 5759 5758 5756 5755 5755 5753 5753 5752 5751 5750 5749 5748 5747 5746 5745 5744 5742 5741 5739 5737 5736 5734 5733 5731 5729 5728 5726 5724 5723
5707 5706 5709 5711 5711 5714 5716 5717 5720 5723 5724 5726 5730 5734 5734 5735 5736 5734 5735 5736 5734 5739 5746 5741 5741 5753 5760 5759 5759 5759 5759 5760 5761 5763 5762 5760 5760 5760 5759 5757 5756 5757 5761 5763 5762 5758 5754 5754 5755 5756 5755 5755 5754 5754 5755 5755 5754 5753 5752 5751 5750 5749 5748 5747 5746 5746 5745 5744 5742 5740 5739 5738 5737 5735 5733 5732 5731 5729 5728 5726 5725 5723 5721 5720 5718 5716
5699 5700 5702 5703 5703 5705 5708 5712 5717 5720 5720 5720 5725 5728 5728 5730 5730 5729 5731 5729 5728 5736 5739 5732 5735 5749 5752 5751 5752 5753 5753 5755 5755 5754 5754 5753 5752 5752 5751 5750 5749 5750 5752 5754 5754 5751 5749 5748 5749 5748 5748 5747 5747 5748 5748 5748 5747 5747 5747 5746 5745 5744 5743 5742 5741 5740 5739 5738 5736 5734 5733 5732 5730 5728 5727 5726 5724 5723 5721 5720 5718 5716 5714 5713 5712 5710
5692 5692 5694 5696 5696 5700 5705 5709 5712 5713 5712 5713 5718 5721 5721 5722 5723 5723 5722 5720 5724 5730 5728 5725 5733 5741 5743 5743 5745 5747 5749 5748 5747 5746 5747 5747 5745 5744 5745 5744 5745 5745 5744 5744 5744 5744 5744 5743 5741 5740 5740 5740 5741 5741 5740 5740 5740 5740 5740 5740 5739 5739 5738 5736 5735 5735 5733 5732 5730 5728 5727 5725 5724 5722 5721 5719 5718 5716 5714 5713 5711 5710 5708 5706 5705 5704
5684 5684 5688 5691 5692 5696 5702 5703 5703 5703 5703 5705 5709 5711 5712 5713 5714 5713 5712 5715 5722 5720 5715 5724 5731 5730 5734 5739 5740 5742 5743 5740 5739 5739 5739 5739 5737 5736 5738 5739 5738 5737 5735 5735 5736 5736 5736 5735 5734 5734 5733 5734 5734 5733 5733 5733 5733 5733 5733 5733 5732 5732 5732 5730 5729 5729 5727 5726 5724 5722 5720 5719 5717 5716 5715 5713 5711 5710 5708 5706 5705 5703 5701 5700 5699 5698
5677 5678 5683 5686 5686 5691 5696 5694 5694 5696 5696 5698 5700 5702 5704 5705 5705 5705 5706 5713 5717 5708 5708 5723 5725 5720 5727 5733 5731 5735 5736 5733 5733 5733 5731 5731 5729 5729 5730 5729 5729 5728 5727 5728 5728 5727 5728 5728 5728 5727 5727 5727 5726 5726 5726 5726 5726 5726 5726 5726 5725 5725 5724 5723 5723 5722 5720 5719 5718 5715 5713 5712 5711 5710 5709 5707 5705 5703 5702 5700 5698 5697 5695 5693 5692 5691
5670 5673 5678 5679 5679 5684 5688 5687 5687 5689 5688 5689 5691 5694 5697 5698 5698 5700 5702 5706 5707 5701 5705 5716 5714 5712 5722 5724 5721 5727 5730 5728 5727 5726 5726 5725 5723 5721 5720 5718 5719 5719 5719 5719 5719 5719 5720 5720 5721 5720 5720 5719 5719 5719 5720 5719 5718 5718 5718 5718 5717 5716 5716 5715 5715 5715 5713 5712 5711 5708 5707 5706 5704 5703 5702 5701 5699 5697 5696 5694 5692 5691 5689 5687 5686 5685
5664 5668 5671 5672 5673 5676 5682 5682 5680 5679 5680 5681 5683 5686 5689 5692 5692 5693 5695 5698 5698 5696 5700 5706 5704 5706 5715 5718 5716 5720 5722 5719 5719 5719 5719 5719 5718 5715 5712 5711 5712 5712 5711 5711 5711 5711 5711 5711 5712 5712 5712 5712 5713 5712 5712 5711 5711 5711 5710 5709 5708 5708 5707 5707 5708 5707 5706 5705 5704 5702 5701 5699 5698 5697 5696 5694 5692 5691 5690 5688 5686 5684 5683 5681 5680 5678
5658 5661 5663 5665 5664 5668 5677 5676 5671 5672 5672 5671 5674 5679 5683 5685 5684 5685 5688 5691 5692 5692 5694 5695 5694 5699 5709 5711 5710 5713 5712 5710 5710 5712 5711 5712 5711 5707 5704 5705 5708 5707 5704 5703 5704 5703 5702 5703 5704 5704 5705 5705 5705 5704 5703 5703 5703 5703 5702 5701 5700 5699 5699 5699 5699 5698 5698 5697 5696 5695 5694 5693 5691 5690 5689 5687 5686 5684 5683 5682 5680 5678 5676 5675 5673 5672
5651 5653 5656 5658 5655 5662 5671 5668 5663 5665 5660 5659 5669 5678 5679 5678 5676 5677 5680 5684 5686 5686 5685 5684 5686 5694 5702 5700 5698 5702 5703 5702 5704 5706 5705 5703 5701 5697 5697 5701 5703 5700 5697 5697 5697 5696 5695 5697 5698 5698 5698 5697 5697 5696 5695 5695 5695 5695 5695 5694 5693 5693 5692 5691 5691 5690 5689 5688 5687 5687 5686 5685 5684 5683 5682 5680 5678 5677 5676 5675 5673 5671 5670 5668 5667 5665
5645 5646 5649 5650 5648 5655 5663 5660 5656 5652 5646 5654 5671 5678 5674 5671 5669 5668 5671 5675 5677 5676 5675 5677 5681 5687 5691 5691 5691 5693 5695 5695 5696 5697 5698 5696 5691 5688 5692 5697 5696 5692 5690 5690 5691 5689 5689 5691 5692 5692 5691 5690 5689 5689 5689 5688 5688 5688 5688 5687 5686 5686 5685 5684 5684 5683 5682 5681 5679 5678 5677 5676 5676 5676 5674 5673 5671 5670 5669 5667 5666 5664 5663 5661 5660 5658
5639 5640 5642 5643 5642 5646 5652 5652 5645 5638 5641 5656 5669 5669 5666 5665 5663 5662 5662 5665 5667 5667 5667 5670 5674 5680 5684 5685 5686 5685 5685 5685 5684 5687 5692 5691 5684 5682 5686 5689 5686 5683 5683 5683 5684 5684 5683 5684 5685 5684 5683 5682 5682 5682 5682 5681 5681 5681 5681 5679 5678 5678 5677 5676 5676 5676 5674 5674 5673 5671 5669 5668 5668 5667 5666 5665 5664 5662 5661 5660 5658 5657 5655 5654 5653 5651
5633 5634 5635 5635 5636 5637 5640 5640 5634 5632 5641 5653 5659 5661 5663 5660 5658 5656 5654 5658 5662 5661 5660 5661 5665 5671 5674 5675 5677 5677 5676 5675 5676 5681 5686 5683 5678 5678 5680 5680 5677 5674 5676 5677 5677 5677 5677 5676 5677 5677 5676 5675 5675 5674 5674 5675 5674 5674 5674 5673 5671 5670 5669 5668 5668 5667 5667 5667 5666 5664 5662 5661 5660 5659 5658 5657 5655 5654 5653 5652 5650 5649 5647 5646 5645 5644
5626 5626 5627 5627 5628 5629 5630 5629 5629 5629 5634 5643 5653 5659 5658 5654 5653 5651 5647 5651 5657 5656 5654 5655 5656 5660 5663 5664 5666 5666 5665 5665 5669 5679 5682 5673 5669 5671 5671 5670 5669 5667 5669 5671 5670 5670 5670 5669 5670 5670 5669 5668 5667 5666 5667 5668 5667 5667 5667 5666 5664 5663 5662 5661 5660 5659 5658 5659 5657 5656 5655 5654 5652 5650 5649 5647 5647 5646 5644 5643 5641 5640 5639 5638 5636 5635
5618 5619 5621 5620 5619 5622 5622 5621 5622 5621 5623 5638 5653 5655 5650 5646 5647 5644 5637 5641 5650 5652 5650 5650 5651 5651 5653 5653 5653 5654 5654 5654 5661 5673 5672 5661 5659 5664 5663 5662 5662 5661 5661 5663 5664 5664 5663 5662 5663 5662 5662 5662 5661 5659 5659 5660 5659 5659 5659 5657 5656 5655 5655 5654 5652 5651 5650 5649 5648 5646 5646 5644 5643 5641 5639 5638 5638 5636 5635 5633 5632 5631 5630 5629 5628 5627
5610 5611 5614 5612 5610 5614 5614 5612 5613 5612 5618 5636 5648 5645 5639 5637 5637 5635 5627 5629 5644 5650 5644 5643 5645 5643 5642 5643 5643 5644 5644 5645 5653 5662 5658 5650 5652 5656 5655 5654 5655 5655 5654 5655 5656 5657 5656 5655 5656 5655 5654 5654 5653 5652 5651 5650 5650 5650 5650 5648 5647 5647 5646 5644 5643 5642 5641 5640 5638 5637 5636 5635 5633 5632 5630 5629 5628 5627 5625 5624 5623 5622 5621 5620 5619 5618
5602 5603 5604 5602 5602 5606 5607 5605 5606 5607 5615 5632 5639 5634 5630 5627 5627 5625 5618 5620 5636 5642 5636 5637 5638 5633 5632 5635 5635 5635 5636 5638 5645 5650 5648 5645 5646 5647 5647 5648 5648 5648 5648 5647 5648 5649 5649 5648 5647 5647 5646 5645 5644 5643 5641 5641 5641 5641 5640 5639 5638 5637 5635 5633 5633 5633 5631 5630 5629 5627 5626 5625 5623 5622 5620 5619 5618 5617 5615 5614 5613 5612 5611 5610 5609 5608
5594 5595 5594 5595 5596 5599 5599 5598 5599 5602 5611 5625 5629 5624 5620 5616 5614 5615 5613 5616 5627 5630 5629 5631 5629 5624 5626 5628 5626 5628 5630 5631 5635 5639 5640 5640 5640 5639 5640 5640 5640 5640 5639 5639 5639 5640 5640 5640 5638 5637 5637 5635 5634 5633 5632 5631 5632 5631 5630 5629 5628 5626 5625 5624 5624 5622 5620 5620 5619 5617 5616 5615 5613 5612 5611 5610 5609 5607 5606 5605 5603 5602 5601 5599 5598 5597
5586 5586 5585 5587 5590 5592 5593 5592 5591 5594 5605 5617 5619 5614 5610 5606 5603 5607 5610 5612 5614 5617 5619 5622 5621 5619 5619 5618 5617 5620 5622 5622 5626 5629 5632 5632 5632 5632 5632 5632 5631 5632 5631 5630 5630 5630 5630 5631 5629 5628 5627 5626 5624 5623 5622 5622 5622 5622 5621 5620 5618 5616 5615 5615 5614 5612 5611 5610 5609 5607 5606 5605 5604 5603 5601 5600 5599 5598 5597 5596 5594 5592 5590 5589 5587 5586
5578 5577 5576 5579 5584 5586 5585 5584 5583 5586 5597 5607 5608 5603 5600 5597 5597 5600 5602 5602 5604 5606 5608 5609 5612 5612 5610 5609 5609 5610 5612 5615 5617 5620 5623 5625 5624 5624 5624 5624 5624 5624 5623 5622 5621 5619 5619 5621 5620 5619 5618 5616 5615 5613 5612 5612 5612 5612 5611 5610 5608 5606 5606 5605 5603 5602 5601 5600 5599 5598 5597 5596 5595 5594 5592 5591 5590 5588 5588 5586 5584 5582 5580 5579 5577 5576
5569 5569 5569 5573 5577 5578 5575 5576 5579 5582 5588 5593 5595 5593 5591 5590 5591 5593 5593 5594 5596 5597 5597 5598 5600 5601 5601 5601 5601 5600 5602 5606 5608 5609 5612 5614 5614 5615 5614 5614 5614 5614 5614 5613 5611 5610 5609 5610 5611 5610 5609 5607 5605 5603 5602 5601 5601 5602 5602 5600 5597 5596 5596 5595 5593 5592 5592 5590 5589 5588 5587 5586 5585 5584 5583 5581 5580 5578 5577 5576 5574 5572 5571 5569 5567 5566
5562 5564 5565 5567 5570 5570 5569 5571 5575 5577 5578 5580 5583 5583 5582 5583 5583 5584 5585 5586 5587 5587 5588 5588 5589 5589 5590 5591 5592 5592 5593 5594 5596 5598 5599 5601 5604 5605 5604 5603 5604 5603 5604 5603 5602 5600 5599 5600 5600 5600 5599 5598 5595 5592 5591 5591 5590 5591 5592 5590 5587 5586 5586 5585 5584 5583 5582 5581 5579 5578 5577 5576 5575 5574 5572 5571 5569 5567 5566 5564 5563 5562 5560 5558 5557 5556
5554 5557 5558 5559 5561 5563 5563 5564 5567 5569 5570 5572 5574 5574 5574 5575 5575 5574 5575 5577 5577 5578 5579 5580 5580 5581 5581 5581 5582 5583 5583 5584 5585 5586 5587 5589 5592 5593 5593 5594 5594 5593 5593 5594 5593 5591 5589 5589 5589 5588 5588 5588 5586 5581 5581 5581 5580 5580 5580 5579 5578 5577 5576 5575 5574 5573 5572 5570 5569 5567 5565 5564 5562 5561 5560 5558 5557 5555 5554 5552 5551 5550 5548 5547 5546 5544
5545 5547 5548 5550 5552 5554 5555 5557 5559 5560 5562 5565 5566 5566 5566 5566 5566 5565 5566 5567 5568 5570 5571 5572 5573 5573 5572 5572 5573 5574 5574 5575 5575 5576 5578 5579 5581 5583 5584 5584 5585 5584 5583 5583 5582 5581 5580 5579 5579 5578 5577 5578 5576 5572 5570 5571 5570 5568 5568 5568 5567 5566 5565 5564 5563 5562 5560 5558 5556 5554 5552 5550 5548 5547 5545 5544 5543 5542 5541 5540 5539 5538 5537 5536 5534 5533
5537 5538 5540 5541 5543 5545 5547 5549 5551 5551 5553 5555 5556 5555 5556 5557 5557 5558 5558 5559 5560 5562 5562 5563 5563 5564 5564 5564 5564 5565 5566 5566 5565 5566 5568 5570 5571 5573 5573 5573 5574 5575 5574 5572 5571 5570 5570 5570 5569 5568 5568 5568 5566 5563 5561 5561 5559 5557 5556 5556 5554 5553 5552 5551 5550 5549 5548 5546 5544 5542 5540 5538 5536 5534 5532 5531 5530 5529 5528 5527 5526 5525 5525 5523 5522 5521
5528 5530 5532 5533 5534 5537 5541 5542 5542 5542 5544 5546 5545 5544 5545 5547 5549 5550 5550 5551 5552 5552 5553 5552 5552 5553 5555 5555 5555 5555 5557 5557 5556 5555 5557 5559 5561 5562 5562 5563 5564 5564 5564 5563 5561 5560 5560 5559 5558 5558 5558 5558 5556 5553 5552 5551 5548 5546 5544 5543 5542 5541 5540 5539 5538 5537 5535 5534 5532 5530 5528 5526 5524 5523 5521 5520 5519 5518 5517 5515 5514 5513 5512 5511 5510 5510
5521 5523 5524 5525 5526 5530 5534 5534 5533 5534 5536 5537 5535 5534 5536 5539 5541 5542 5542 5542 5542 5542 5542 5543 5542 5543 5544 5545 5545 5545 5546 5547 5548 5546 5547 5549 5550 5550 5551 5552 5553 5554 5554 5553 5551 5550 5549 5547 5546 5546 5547 5547 5545 5542 5541 5540 5537 5535 5533 5532 5530 5530 5529 5528 5527 5525 5524 5523 5521 5519 5517 5516 5514 5513 5512 5510 5509 5508 5506 5505 5504 5503 5502 5500 5500 5499
5515 5515 5516 5517 5517 5521 5525 5526 5526 5527 5528 5528 5526 5526 5528 5531 5532 5532 5532 5532 5532 5531 5532 5533 5534 5535 5535 5534 5534 5533 5534 5536 5537 5536 5537 5539 5539 5539 5539 5539 5540 5542 5543 5542 5540 5539 5538 5535 5534 5533 5533 5534 5533 5531 5529 5528 5526 5524 5523 5521 5520 5519 5518 5517 5516 5515 5513 5512 5511 5509 5508 5506 5505 5504 5502 5501 5500 5499 5498 5496 5495 5494 5492 5491 5490 5489